[[{"header":{"parameterUnit":"m.s-1","parameterCategory":2,"la1":30.2991,"la2":30.254,"lo1":-89.0895,"lo2":-89.0444,"dy":0.0017,"dx":0.0017,"nx":28,"ny":28,"refTime":"2025-12-16T03:00:00:Z","depth":"0","parameterNumber":2,"parameterNumberName":"U-component_of_CURRENTS"},"data":[0,0,0,0,0,0,0,0,0,0,0,0,0,0,0,0,0,0,0,0,0,0,0,0,0,0,0,0,0,0,0,0,0,0,0,0,0,0,0,0,0,0,0,0,0,0,0,0,0,0,0,0,0,0,0,0,0,0,-0.3045,-0.3046,0,-0.3045,-0.3045,-0.3044,-0.2979,-0.2978,-0.2977,-0.2976,-0.2852,-0.285,-0.2847,0,0,0,0,0,0,0,0,0,0,0,0,0,-0.2817,-0.2822,-0.3045,-0.3046,-0.3047,-0.3045,-0.3045,-0.3044,-0.2979,-0.2978,-0.2977,-0.2976,-0.2853,-0.285,-0.2847,0,0,0,0,0,0,0,0,0,0,0,0,0,-0.2869,-0.2823,-0.3045,-0.3021,-0.3019,-0.3046,-0.3044,-0.3043,-0.2979,-0.2978,-0.2977,-0.2975,-0.2854,-0.285,-0.2847,-0.2851,0,0,-0.2835,-0.2834,0,0,0,0,0,0,0,0,-0.2866,-0.2876,-0.3023,-0.3022,-0.3021,-0.3018,-0.2919,-0.2976,-0.298,-0.2985,-0.2976,-0.2975,-0.2903,-0.2895,-0.2887,-0.2845,-0.284,-0.2835,-0.2833,-0.2831,-0.283,0,0,0,0,0,0,0,-0.2863,-0.2875,-0.3036,-0.3025,-0.3023,-0.2951,-0.2958,-0.2928,-0.2943,-0.2985,-0.2982,-0.2996,-0.29,-0.2891,-0.2884,-0.2838,-0.2835,-0.2832,-0.283,-0.2828,-0.2796,-0.2797,0,0,0,0,0,0,-0.2892,-0.2873,-0.3036,-0.3037,-0.2948,-0.2958,-0.2965,-0.3013,-0.2945,-0.2937,-0.2998,-0.2994,-0.2898,-0.2888,-0.2879,-0.2898,-0.2831,-0.2828,-0.2826,-0.2795,-0.2796,-0.2798,0,0,0,0,0,0,-0.2888,-0.2908,-0.3036,-0.2958,-0.2971,-0.2966,-0.3019,-0.3014,-0.3009,-0.2959,-0.2946,-0.2999,-0.2897,-0.2884,-0.2862,-0.2891,-0.2826,-0.2823,-0.2793,-0.2795,-0.2797,-0.2923,0,0,0,0,0,0,-0.2882,-0.2907,-0.2935,-0.2963,-0.2977,-0.3067,-0.3021,-0.3016,-0.3024,-0.3019,-0.2956,-0.2943,-0.2895,-0.2868,-0.2859,-0.2885,-0.282,-0.2791,-0.2794,-0.2796,-0.2917,-0.2929,-0.294,0,0,0,0,0,-0.2874,-0.2923,-0.2937,-0.2956,-0.3024,-0.3069,-0.3069,-0.3051,-0.3026,-0.3037,-0.2992,-0.2945,-0.2877,-0.2867,-0.2855,-0.2881,-0.279,-0.2793,-0.2796,-0.2912,-0.2927,-0.2939,0,0,0,0,0,0,-0.2816,-0.2923,-0.2939,-0.3012,-0.3048,-0.3062,-0.307,-0.3063,-0.3038,-0.3021,-0.2961,-0.2946,-0.2935,-0.2894,-0.2884,-0.2879,-0.2827,-0.2828,-0.2919,-0.2932,-0.2943,-0.2947,-0.2817,0,0,0,0,0,-0.283,-0.2903,-0.2973,-0.3024,-0.3055,-0.3065,-0.3075,-0.3072,-0.3065,-0.3051,-0.3013,-0.2969,-0.2941,-0.2925,-0.2888,-0.2891,-0.2857,-0.2899,-0.2911,-0.2921,-0.2917,-0.2916,-0.2927,-0.2808,-0.2808,-0.2808,0,0,-0.2813,-0.2885,-0.2918,-0.3017,-0.3039,-0.3094,-0.3065,-0.3097,-0.3121,-0.3042,-0.3044,-0.3003,-0.2948,-0.2947,-0.2939,-0.2916,-0.2938,-0.2924,-0.2933,-0.2923,-0.292,-0.2932,-0.2942,-0.281,-0.2809,-0.2809,0,0,-0.2829,-0.2895,-0.2966,-0.3015,-0.3083,-0.3103,-0.3123,-0.3155,-0.3149,-0.316,-0.3105,-0.3086,-0.3046,-0.3019,-0.2998,-0.3049,-0.2993,-0.304,-0.3105,-0.3106,-0.3116,-0.3124,-0.3104,-0.311,-0.3051,-0.3052,-0.3052,0,-0.2798,-0.2911,-0.2979,-0.3058,-0.3096,-0.3119,-0.3177,-0.319,-0.3199,-0.3205,-0.3173,-0.3134,-0.3081,-0.309,-0.3098,-0.3075,-0.3059,-0.3062,-0.3122,-0.3129,-0.3135,-0.3113,-0.3117,-0.3058,-0.3057,-0.3057,-0.3056,0,-0.2874,-0.2955,-0.2996,-0.3119,-0.3168,-0.3215,-0.3271,-0.3298,-0.3294,-0.33,-0.3306,-0.3248,-0.322,-0.3213,-0.3162,-0.319,-0.3159,-0.3135,-0.3092,-0.3155,-0.3127,-0.3129,-0.3067,-0.3065,-0.3063,-0.3062,0,0,-0.2801,-0.3013,-0.3015,-0.3081,-0.3201,-0.324,-0.3315,-0.338,-0.3407,-0.3414,-0.3443,-0.3401,-0.3366,-0.3338,-0.3289,-0.3289,-0.331,-0.3234,-0.3231,-0.3221,-0.3304,-0.313,-0.3115,-0.3306,-0.3307,-0.3308,-0.3269,0,-0.2821,-0.2977,-0.3076,-0.3177,-0.3257,-0.3327,-0.339,-0.3448,-0.347,-0.3503,-0.3483,-0.347,-0.3417,-0.339,-0.3393,-0.3312,-0.332,-0.3321,-0.3237,-0.3233,-0.3077,-0.3113,-0.2973,-0.2913,-0.3271,-0.3271,-0.3271,0,-0.2845,-0.2952,-0.3073,-0.3229,-0.3266,-0.332,-0.3417,-0.3476,-0.3551,-0.3565,-0.3587,-0.3561,-0.3548,-0.3493,-0.3437,-0.3441,-0.3382,-0.3337,-0.3334,-0.3124,-0.3062,-0.2905,-0.2903,-0.2878,-0.3274,-0.3274,-0.3274,0,-0.275,-0.2933,-0.3024,-0.3076,-0.3258,-0.3304,-0.338,-0.3478,-0.3513,-0.3589,-0.359,-0.3619,-0.356,-0.355,-0.3415,-0.344,-0.3341,-0.3365,-0.3171,-0.3158,-0.2992,-0.2961,-0.2953,-0.3351,-0.3351,-0.3351,-0.3352,0,-0.2734,-0.2798,-0.2981,-0.3025,-0.3106,-0.3247,-0.3312,-0.34,-0.3491,-0.3487,-0.3582,-0.3535,-0.3565,-0.3498,-0.3447,-0.3271,-0.3359,-0.3174,-0.3135,-0.3029,-0.3004,-0.2931,-0.2956,-0.335,-0.335,-0.3351,-0.3351,0,-0.2635,-0.2757,-0.286,-0.3031,-0.3071,-0.3121,-0.3261,-0.3285,-0.3396,-0.3391,-0.3403,-0.3452,-0.3361,-0.3365,-0.3297,-0.3231,-0.3065,-0.3062,-0.2915,-0.2858,-0.2667,-0.2703,-0.2611,-0.2543,-0.2888,-0.2883,-0.2879,0,-0.2621,-0.2665,-0.2818,-0.2832,-0.2902,-0.2995,-0.3029,-0.3201,-0.3207,-0.3274,-0.3222,-0.3204,-0.3107,-0.2985,-0.2915,-0.284,-0.2854,-0.2646,-0.2668,-0.2621,-0.2637,-0.2672,-0.2627,-0.2517,-0.2511,-0.2506,-0.2501,0,-0.2559,-0.2594,-0.2651,-0.2689,-0.2718,-0.2777,-0.2836,-0.2842,-0.2968,-0.2971,-0.2896,-0.2853,-0.2765,-0.2614,-0.2536,-0.2477,-0.2569,-0.253,-0.2539,-0.2378,-0.2361,-0.2286,-0.258,-0.2454,-0.2458,-0.2462,-0.2465,-0.2466,-0.2461,-0.2462,-0.2492,-0.2504,-0.2522,-0.2493,-0.2473,-0.2515,-0.2504,-0.2459,-0.252,-0.2418,-0.2372,-0.2253,-0.2191,-0.2072,-0.2196,-0.2037,-0.2098,-0.2148,-0.2037,-0.2193,-0.1978,-0.198,-0.1982,-0.1983,-0.1984,0,-0.2343,-0.2317,-0.2302,-0.2276,-0.2192,-0.2289,-0.2271,-0.221,-0.2107,-0.2121,-0.2062,-0.1991,-0.1854,-0.1866,-0.1776,-0.169,-0.1707,-0.1665,-0.1738,-0.1724,-0.1901,-0.1835,-0.1506,-0.1506,-0.1506,-0.1506,-0.1506,-0.1506,-0.227,-0.2187,-0.216,-0.1944,-0.1906,-0.1771,-0.1727,-0.1672,-0.1663,-0.1563,-0.1556,-0.1603,-0.1633,-0.1708,-0.1593,-0.1519,-0.1534,-0.1446,-0.152,-0.1708,-0.175,-0.1791,-0.1736,-0.1391,-0.1391,-0.1279,-0.1279,-0.1278]},{"header":{"parameterUnit":"m.s-1","parameterCategory":2,"la1":30.2991,"la2":30.254,"lo1":-89.0895,"lo2":-89.0444,"dy":0.0017,"dx":0.0017,"nx":28,"ny":28,"refTime":"2025-12-16T03:00:00:Z","depth":"0","parameterNumber":3,"parameterNumberName":"V-component_of_CURRENTS"},"data":[0,0,0,0,0,0,0,0,0,0,0,0,0,0,0,0,0,0,0,0,0,0,0,0,0,0,0,0,0,0,0,0,0,0,0,0,0,0,0,0,0,0,0,0,0,0,0,0,0,0,0,0,0,0,0,0,0,0,0.013,0.0131,0,0.0207,0.0208,0.0208,0.0251,0.0251,0.0251,0.0252,0.0344,0.0346,0.0349,0,0,0,0,0,0,0,0,0,0,0,0,0,0.0044,0.0045,0.013,0.0131,0.0132,0.0207,0.0208,0.0209,0.0251,0.0251,0.0251,0.0252,0.0344,0.0346,0.0349,0,0,0,0,0,0,0,0,0,0,0,0,0,0.0096,0.0045,0.013,0.0163,0.0167,0.0207,0.0208,0.0209,0.0251,0.0251,0.0252,0.0252,0.0343,0.0346,0.0349,0.0363,0,0,0.036,0.0361,0,0,0,0,0,0,0,0,0.0093,0.0099,0.0157,0.0161,0.0165,0.0221,0.0212,0.0262,0.0251,0.0218,0.0252,0.0252,0.0305,0.0311,0.0323,0.0368,0.0372,0.036,0.0362,0.0363,0.0364,0,0,0,0,0,0,0,0.0089,0.0096,0.0159,0.0158,0.0163,0.0183,0.019,0.0221,0.0258,0.0221,0.0224,0.0235,0.0307,0.032,0.0326,0.0373,0.036,0.0363,0.0365,0.0366,0.0463,0.0464,0,0,0,0,0,0,0.008,0.0092,0.0157,0.0162,0.013,0.0184,0.0192,0.0202,0.0257,0.0266,0.0234,0.0236,0.0314,0.0322,0.0329,0.0366,0.0363,0.0367,0.0368,0.0463,0.0463,0.0464,0,0,0,0,0,0,0.0078,0.0085,0.0154,0.013,0.014,0.0185,0.0195,0.0203,0.0217,0.0268,0.0277,0.024,0.0314,0.0324,0.036,0.0369,0.0368,0.0371,0.0462,0.0463,0.0463,0.0429,0,0,0,0,0,0,0.0075,0.0084,0.0081,0.0129,0.0141,0.0174,0.0195,0.0204,0.0223,0.0227,0.0276,0.0285,0.0315,0.0355,0.0364,0.0374,0.0374,0.0461,0.0462,0.0463,0.0429,0.0428,0.0427,0,0,0,0,0,0.0072,0.0065,0.0081,0.0089,0.0138,0.0174,0.0181,0.0214,0.0223,0.0227,0.0264,0.0283,0.0368,0.0358,0.0368,0.0379,0.0461,0.0462,0.0463,0.0429,0.0428,0.0427,0,0,0,0,0,0,0.002,0.007,0.0088,0.0095,0.0132,0.0181,0.0184,0.021,0.0241,0.0241,0.0288,0.03,0.0334,0.0362,0.035,0.0412,0.0419,0.0422,0.039,0.0389,0.0388,0.0379,0.0377,0,0,0,0,0,0.0009,0.0018,0.0072,0.0075,0.0091,0.0136,0.0152,0.0178,0.0215,0.0229,0.0267,0.0308,0.0347,0.037,0.0404,0.0437,0.0452,0.0453,0.0452,0.0451,0.0451,0.0491,0.0493,0.0468,0.0468,0.0468,0,0,-0.0011,0.0017,0.0021,0.0065,0.0092,0.0113,0.0146,0.0167,0.0188,0.0234,0.0265,0.0302,0.0353,0.039,0.0409,0.0416,0.0461,0.0452,0.0451,0.0452,0.0492,0.0495,0.0497,0.0469,0.0468,0.0468,0,0,-0.0049,-0.0022,-0.0025,0.0005,0.0048,0.0084,0.009,0.0142,0.0167,0.0205,0.0244,0.029,0.0342,0.0389,0.0417,0.0434,0.045,0.0442,0.0437,0.0475,0.0477,0.048,0.0475,0.0477,0.0447,0.0447,0.0447,0,-0.0078,-0.0072,-0.0022,-0.0013,0.0005,0.007,0.0072,0.0114,0.0173,0.0196,0.0208,0.0303,0.0346,0.0405,0.0413,0.0432,0.0438,0.0434,0.0473,0.0475,0.0478,0.0474,0.0477,0.0445,0.0446,0.0446,0.0446,0,-0.0111,-0.0105,-0.0106,-0.0069,-0.0037,-0.0029,0.0041,0.0075,0.0114,0.0161,0.0221,0.0285,0.0343,0.0368,0.0397,0.0445,0.0435,0.046,0.047,0.0479,0.0473,0.0477,0.0443,0.0444,0.0444,0.0445,0,0,-0.019,-0.0142,-0.0146,-0.0146,-0.0071,-0.0059,-0.0004,0.0054,0.0074,0.0152,0.0182,0.0274,0.0312,0.0347,0.0396,0.0442,0.0463,0.0456,0.0458,0.0441,0.0512,0.0531,0.0536,0.0491,0.0493,0.0493,0.0489,0,-0.0239,-0.0257,-0.0199,-0.0207,-0.0212,-0.0123,-0.0084,-0.0015,0.005,0.0099,0.0197,0.0237,0.0304,0.0319,0.0384,0.0441,0.0475,0.046,0.0515,0.0516,0.0526,0.0544,0.0579,0.0581,0.0493,0.0493,0.0494,0,-0.0299,-0.0303,-0.0326,-0.0293,-0.0286,-0.0265,-0.0202,-0.0159,-0.0045,0.0003,0.0094,0.0165,0.0257,0.0297,0.0419,0.0402,0.0452,0.0499,0.0501,0.0537,0.0545,0.0567,0.0591,0.074,0.0499,0.0499,0.0499,0,-0.0411,-0.0397,-0.0427,-0.0415,-0.0354,-0.0341,-0.0302,-0.0197,-0.0172,-0.0063,-0.0045,0.0097,0.0133,0.0249,0.0368,0.0386,0.0477,0.0515,0.0577,0.0576,0.0629,0.0632,0.0801,0.0588,0.0588,0.0588,0.0588,0,-0.0499,-0.0524,-0.049,-0.0508,-0.0541,-0.0452,-0.0456,-0.0386,-0.0299,-0.0278,-0.0119,-0.0087,0.0121,0.0212,0.0333,0.0461,0.0452,0.0576,0.0589,0.0615,0.0617,0.0767,0.0821,0.0587,0.0588,0.0588,0.0588,0,-0.0616,-0.059,-0.0632,-0.0601,-0.0596,-0.0624,-0.0575,-0.0567,-0.0474,-0.0443,-0.0419,-0.0243,-0.0099,0.0092,0.0265,0.039,0.0604,0.0557,0.0554,0.057,0.0799,0.0847,0.0991,0.1065,0.0644,0.0644,0.0645,0,-0.0676,-0.0715,-0.0732,-0.076,-0.075,-0.0766,-0.0764,-0.0673,-0.0654,-0.0542,-0.0541,-0.039,-0.0251,0.0016,0.0268,0.0491,0.0611,0.0627,0.0698,0.0823,0.0887,0.0921,0.0975,0.0734,0.0735,0.0736,0.0737,0,-0.0795,-0.0804,-0.0832,-0.0896,-0.092,-0.0941,-0.093,-0.0939,-0.0823,-0.0772,-0.0674,-0.0555,-0.0262,0.0047,0.0343,0.0484,0.0748,0.0655,0.0806,0.0995,0.1022,0.1094,0.0689,0.0746,0.0745,0.0745,0.0744,0.0744,-0.0878,-0.0936,-0.097,-0.1025,-0.1053,-0.1073,-0.1077,-0.1039,-0.0998,-0.0858,-0.0772,-0.054,-0.0116,0.0347,0.0494,0.0855,0.0831,0.0991,0.1038,0.1059,0.1154,0.075,0.0817,0.0816,0.0816,0.0815,0.0815,0,-0.0973,-0.1019,-0.1086,-0.1128,-0.1159,-0.1147,-0.1145,-0.1102,-0.1034,-0.0876,-0.0727,-0.0247,0.0169,0.0559,0.1051,0.1242,0.129,0.1335,0.1417,0.1454,0.1124,0.1157,0.1275,0.1275,0.1275,0.1275,0.1275,0.1275,-0.1015,-0.1108,-0.1134,-0.1196,-0.1212,-0.1216,-0.1202,-0.1117,-0.0988,-0.0677,-0.0384,-0.0163,0.0374,0.1136,0.1582,0.1619,0.1784,0.1756,0.1836,0.1642,0.1614,0.1588,0.1636,0.1854,0.1854,0.2169,0.2172,0.2175]}],[{"header":{"parameterUnit":"m.s-1","parameterCategory":2,"la1":30.2991,"la2":30.254,"lo1":-89.0895,"lo2":-89.0444,"dy":0.0017,"dx":0.0017,"nx":28,"ny":28,"refTime":"2025-12-16T03:00:00:Z","depth":"2","parameterNumber":2,"parameterNumberName":"U-component_of_CURRENTS"},"data":[0,0,0,0,0,0,0,0,0,0,0,0,0,0,0,0,0,0,0,0,0,0,0,0,0,0,0,0,0,0,0,0,0,0,0,0,0,0,0,0,0,0,0,0,0,0,0,0,0,0,0,0,0,0,0,0,0,0,-0.2122,-0.2123,0,-0.2172,-0.2172,-0.2172,-0.2204,-0.2204,-0.2205,-0.2205,-0.2216,-0.2216,-0.2216,0,0,0,0,0,0,0,0,0,0,0,0,0,-0.1998,-0.2,-0.2122,-0.2123,-0.2124,-0.2172,-0.2172,-0.2172,-0.2204,-0.2204,-0.2205,-0.2206,-0.2216,-0.2216,-0.2215,0,0,0,0,0,0,0,0,0,0,0,0,0,-0.2046,-0.2001,-0.2122,-0.2149,-0.2152,-0.2172,-0.2172,-0.2172,-0.2203,-0.2204,-0.2205,-0.2206,-0.2216,-0.2216,-0.2215,-0.2195,0,0,-0.2214,-0.2214,0,0,0,0,0,0,0,0,-0.2044,-0.205,-0.2144,-0.2147,-0.2151,-0.2186,-0.2133,-0.218,-0.2203,-0.2179,-0.2205,-0.2207,-0.2205,-0.2205,-0.2207,-0.2195,-0.2196,-0.2214,-0.2214,-0.2214,-0.2214,0,0,0,0,0,0,0,-0.204,-0.2048,-0.2137,-0.2145,-0.2149,-0.214,-0.2147,-0.2141,-0.2182,-0.2181,-0.2185,-0.2197,-0.2206,-0.2207,-0.2207,-0.2196,-0.2214,-0.2214,-0.2214,-0.2213,-0.2245,-0.2246,0,0,0,0,0,0,-0.2046,-0.2045,-0.2136,-0.2139,-0.2103,-0.2142,-0.215,-0.217,-0.2183,-0.2188,-0.2197,-0.2199,-0.2207,-0.2208,-0.2208,-0.2278,-0.2214,-0.2213,-0.2213,-0.2244,-0.2245,-0.2246,0,0,0,0,0,0,-0.2043,-0.2053,-0.2134,-0.2096,-0.2106,-0.2144,-0.2166,-0.2171,-0.2196,-0.2196,-0.2199,-0.222,-0.2208,-0.2208,-0.2225,-0.2275,-0.2213,-0.2213,-0.2242,-0.2244,-0.2245,-0.2359,0,0,0,0,0,0,-0.2039,-0.2052,-0.2067,-0.2097,-0.2109,-0.2169,-0.2165,-0.2171,-0.2203,-0.2207,-0.2216,-0.2217,-0.2209,-0.2226,-0.2225,-0.2274,-0.2212,-0.2241,-0.2243,-0.2245,-0.2354,-0.2364,-0.2373,0,0,0,0,0,-0.2035,-0.206,-0.2067,-0.2078,-0.2129,-0.217,-0.2175,-0.22,-0.2204,-0.2224,-0.2227,-0.2218,-0.2238,-0.2226,-0.2225,-0.2275,-0.224,-0.2242,-0.2245,-0.2349,-0.2362,-0.2373,0,0,0,0,0,0,-0.2018,-0.2067,-0.2075,-0.2116,-0.2149,-0.2178,-0.2199,-0.2211,-0.2229,-0.2233,-0.2226,-0.2227,-0.2259,-0.2242,-0.2229,-0.2287,-0.224,-0.2242,-0.232,-0.2331,-0.2341,-0.2355,-0.2212,0,0,0,0,0,-0.2019,-0.2051,-0.2092,-0.2124,-0.2144,-0.2171,-0.219,-0.221,-0.2231,-0.2241,-0.2251,-0.2255,-0.2262,-0.2278,-0.2273,-0.2305,-0.2289,-0.2335,-0.2345,-0.2353,-0.2362,-0.2356,-0.2367,-0.2254,-0.2254,-0.2254,0,0,-0.2019,-0.2053,-0.2069,-0.2122,-0.2147,-0.2192,-0.2185,-0.2228,-0.2283,-0.2236,-0.2305,-0.2283,-0.2272,-0.2311,-0.2325,-0.2311,-0.2385,-0.2356,-0.2364,-0.2368,-0.236,-0.2371,-0.2381,-0.2256,-0.2255,-0.2255,0,0,-0.203,-0.2069,-0.2092,-0.2133,-0.2184,-0.2213,-0.2232,-0.2277,-0.2319,-0.2369,-0.2348,-0.2348,-0.2381,-0.2376,-0.2379,-0.2432,-0.2425,-0.2447,-0.2525,-0.2521,-0.2531,-0.2538,-0.2569,-0.2579,-0.2466,-0.2466,-0.2466,0,-0.202,-0.2069,-0.2105,-0.2148,-0.2185,-0.223,-0.2268,-0.233,-0.2378,-0.242,-0.2411,-0.2425,-0.2411,-0.2443,-0.2475,-0.2456,-0.247,-0.2488,-0.2535,-0.2543,-0.2549,-0.2578,-0.2587,-0.2472,-0.2471,-0.2471,-0.247,0,-0.2058,-0.2099,-0.2125,-0.2196,-0.2238,-0.2288,-0.2371,-0.2413,-0.2462,-0.2536,-0.2584,-0.2545,-0.2549,-0.2556,-0.2545,-0.2587,-0.259,-0.2539,-0.2511,-0.2568,-0.2594,-0.2602,-0.248,-0.2478,-0.2476,-0.2475,0,0,-0.201,-0.2124,-0.2128,-0.2171,-0.2271,-0.2309,-0.2398,-0.2499,-0.2549,-0.2632,-0.2677,-0.2713,-0.2702,-0.2698,-0.2659,-0.2672,-0.2737,-0.2652,-0.2649,-0.2693,-0.2776,-0.2587,-0.2577,-0.271,-0.2711,-0.2712,-0.279,0,-0.2019,-0.2096,-0.2154,-0.2238,-0.2286,-0.2354,-0.2436,-0.2541,-0.2608,-0.2674,-0.2715,-0.2749,-0.2766,-0.2725,-0.276,-0.2739,-0.2758,-0.2723,-0.2705,-0.2705,-0.2536,-0.2578,-0.2387,-0.2422,-0.2797,-0.2799,-0.28,0,-0.2023,-0.2078,-0.2153,-0.2258,-0.2285,-0.235,-0.2434,-0.2517,-0.2646,-0.2691,-0.275,-0.2781,-0.2852,-0.2787,-0.2868,-0.2861,-0.2833,-0.2813,-0.2814,-0.2597,-0.2527,-0.2417,-0.2422,-0.2812,-0.2811,-0.281,-0.2809,0,-0.1968,-0.2071,-0.2132,-0.2178,-0.2309,-0.2346,-0.2415,-0.2531,-0.2601,-0.2688,-0.2715,-0.2823,-0.2822,-0.2868,-0.2859,-0.289,-0.2882,-0.2904,-0.271,-0.2699,-0.2506,-0.2472,-0.2896,-0.2896,-0.2896,-0.2896,-0.2896,0,-0.1964,-0.2006,-0.2117,-0.2166,-0.2228,-0.2329,-0.2394,-0.2457,-0.2548,-0.2621,-0.2728,-0.2719,-0.2838,-0.2849,-0.2871,-0.2813,-0.2901,-0.2731,-0.2695,-0.254,-0.251,-0.2807,-0.2796,-0.2899,-0.2898,-0.2898,-0.2897,0,-0.19,-0.1983,-0.2053,-0.2178,-0.2213,-0.2262,-0.238,-0.2412,-0.2519,-0.2564,-0.2596,-0.2701,-0.2732,-0.2781,-0.2793,-0.2778,-0.2742,-0.2653,-0.2474,-0.2412,-0.2596,-0.259,-0.2574,-0.2568,-0.2562,-0.2558,-0.2554,0,-0.188,-0.1915,-0.2032,-0.2059,-0.2121,-0.2199,-0.2236,-0.237,-0.2401,-0.252,-0.2523,-0.2573,-0.2551,-0.2538,-0.2492,-0.2482,-0.2547,-0.2247,-0.2242,-0.2591,-0.2559,-0.2561,-0.2562,-0.2079,-0.2071,-0.2065,-0.2061,0,-0.183,-0.1873,-0.1925,-0.1971,-0.2023,-0.207,-0.2142,-0.2167,-0.2296,-0.2334,-0.2349,-0.2344,-0.2324,-0.2203,-0.2125,-0.2096,-0.2266,-0.2121,-0.2516,-0.2147,-0.2116,-0.2087,-0.2106,-0.2007,-0.2013,-0.2017,-0.2019,-0.2022,-0.1765,-0.1772,-0.1828,-0.1857,-0.1905,-0.1916,-0.1902,-0.1968,-0.1995,-0.2014,-0.2091,-0.2017,-0.2026,-0.1837,-0.1753,-0.1709,-0.1897,-0.1846,-0.1869,-0.1897,-0.1782,-0.1738,-0.1542,-0.1545,-0.1547,-0.1549,-0.1551,0,-0.1666,-0.1681,-0.1699,-0.1725,-0.1705,-0.1781,-0.1804,-0.1759,-0.1714,-0.1742,-0.1722,-0.1548,-0.1441,-0.1469,-0.1327,-0.1307,-0.1357,-0.1254,-0.133,-0.1381,-0.1427,-0.1293,-0.0922,-0.092,-0.0919,-0.0917,0,0,-0.1624,-0.1584,-0.1582,-0.1511,-0.1522,-0.1452,-0.143,-0.1388,-0.1377,-0.1291,-0.1244,-0.1326,-0.1385,-0.1137,-0.1095,-0.098,-0.1173,-0.0931,-0.143,-0.1567,-0.1612,-0.1756,-0.1602,0,0,0,0,0]},{"header":{"parameterUnit":"m.s-1","parameterCategory":2,"la1":30.2991,"la2":30.254,"lo1":-89.0895,"lo2":-89.0444,"dy":0.0017,"dx":0.0017,"nx":28,"ny":28,"refTime":"2025-12-16T03:00:00:Z","depth":"2","parameterNumber":3,"parameterNumberName":"V-component_of_CURRENTS"},"data":[0,0,0,0,0,0,0,0,0,0,0,0,0,0,0,0,0,0,0,0,0,0,0,0,0,0,0,0,0,0,0,0,0,0,0,0,0,0,0,0,0,0,0,0,0,0,0,0,0,0,0,0,0,0,0,0,0,0,-0.0186,-0.0185,0,-0.0096,-0.0095,-0.0094,-0.0063,-0.0064,-0.0064,-0.0064,-0.0018,-0.0017,-0.0015,0,0,0,0,0,0,0,0,0,0,0,0,0,-0.0228,-0.0228,-0.0186,-0.0185,-0.0184,-0.0096,-0.0095,-0.0093,-0.0063,-0.0064,-0.0064,-0.0064,-0.0019,-0.0017,-0.0015,0,0,0,0,0,0,0,0,0,0,0,0,0,-0.0182,-0.0228,-0.0187,-0.0157,-0.0154,-0.0096,-0.0095,-0.0093,-0.0063,-0.0064,-0.0064,-0.0064,-0.0019,-0.0017,-0.0015,0.0007,0,0,-0.0008,-0.0007,0,0,0,0,0,0,0,0,-0.0185,-0.0181,-0.0163,-0.0159,-0.0155,-0.009,-0.0092,-0.0061,-0.0063,-0.0099,-0.0064,-0.0065,-0.0045,-0.0041,-0.0024,0.0009,0.0011,-0.0008,-0.0007,-0.0006,-0.0005,0,0,0,0,0,0,0,-0.0188,-0.0184,-0.0152,-0.0161,-0.0157,-0.0112,-0.0107,-0.0086,-0.0073,-0.0096,-0.0093,-0.0081,-0.0044,-0.0026,-0.0023,0.0012,-0.0008,-0.0006,-0.0005,-0.0004,0.0056,0.0056,0,0,0,0,0,0,-0.0202,-0.0188,-0.0155,-0.0149,-0.017,-0.0112,-0.0106,-0.0112,-0.0072,-0.0065,-0.0081,-0.008,-0.003,-0.0025,-0.0021,0.0001,-0.0006,-0.0003,-0.0002,0.0055,0.0056,0.0056,0,0,0,0,0,0,-0.0204,-0.0201,-0.0158,-0.0164,-0.0155,-0.0111,-0.0117,-0.011,-0.0098,-0.006,-0.0054,-0.0078,-0.003,-0.0024,-0.0005,0.0003,-0.0002,-0.0,0.0055,0.0055,0.0056,0.0049,0,0,0,0,0,0,-0.0206,-0.0203,-0.0206,-0.0166,-0.0155,-0.013,-0.0116,-0.0107,-0.0089,-0.0087,-0.0055,-0.0051,-0.003,-0.0008,-0.0003,0.0006,0.0001,0.0055,0.0055,0.0056,0.0049,0.0049,0.005,0,0,0,0,0,-0.0208,-0.0219,-0.0208,-0.0203,-0.0165,-0.013,-0.0121,-0.0091,-0.0089,-0.0083,-0.0062,-0.0052,-0.0001,-0.0006,0.0,0.001,0.0055,0.0055,0.0056,0.0049,0.0049,0.005,0,0,0,0,0,0,-0.0238,-0.0216,-0.0202,-0.0206,-0.0171,-0.0125,-0.0116,-0.0096,-0.0073,-0.0078,-0.0047,-0.0041,-0.0024,-0.0006,-0.0012,0.0028,0.0027,0.0029,0.002,0.0021,0.0021,0.0023,0.0003,0,0,0,0,0,-0.0247,-0.0251,-0.0213,-0.0213,-0.0202,-0.0161,-0.0142,-0.0123,-0.0096,-0.0086,-0.0061,-0.0037,-0.0014,0.0002,0.0021,0.0047,0.0072,0.0056,0.0057,0.0057,0.0063,0.0119,0.0126,0.0058,0.0058,0.0058,0,0,-0.0257,-0.0244,-0.0246,-0.0219,-0.0194,-0.0185,-0.0152,-0.0133,-0.0113,-0.0086,-0.0062,-0.0042,-0.001,0.0017,0.0027,0.0033,0.0085,0.0057,0.0057,0.0064,0.0121,0.0128,0.0134,0.0058,0.0058,0.0058,0,0,-0.0288,-0.0272,-0.029,-0.0267,-0.0234,-0.0203,-0.0202,-0.0161,-0.013,-0.0103,-0.0079,-0.005,-0.0017,0.0019,0.0039,0.0052,0.0077,0.0052,0.0066,0.0121,0.0127,0.0133,0.0157,0.0166,0.0061,0.0061,0.0061,0,-0.0302,-0.032,-0.0285,-0.0292,-0.0277,-0.022,-0.0229,-0.0181,-0.0134,-0.0103,-0.0103,-0.0033,-0.0012,0.0042,0.0047,0.0054,0.0079,0.0063,0.0122,0.0129,0.0135,0.0159,0.0168,0.0061,0.0061,0.0061,0.0061,0,-0.0344,-0.0355,-0.0361,-0.0355,-0.033,-0.0326,-0.0262,-0.0236,-0.0199,-0.0138,-0.0079,-0.0035,0.0009,0.0023,0.004,0.0098,0.0098,0.0109,0.0123,0.0142,0.0165,0.0175,0.0061,0.0061,0.0061,0.0061,0,0,-0.0394,-0.0395,-0.0399,-0.0408,-0.0366,-0.0354,-0.0318,-0.0256,-0.0237,-0.0151,-0.0117,-0.0036,0.0008,0.0033,0.0069,0.0126,0.0182,0.0137,0.014,0.0162,0.0287,0.0277,0.0287,0.0209,0.0211,0.0213,0.0279,0,-0.044,-0.0483,-0.0457,-0.0479,-0.0495,-0.0433,-0.0402,-0.0331,-0.027,-0.0218,-0.0104,-0.0061,0.0014,0.0016,0.0098,0.0157,0.0211,0.0162,0.0264,0.0267,0.0258,0.0299,0.0277,0.0335,0.0289,0.029,0.0292,0,-0.0494,-0.0516,-0.0558,-0.0553,-0.0552,-0.0544,-0.0504,-0.0465,-0.0352,-0.0303,-0.0202,-0.0124,-0.0002,0.0021,0.0202,0.017,0.0228,0.0278,0.0282,0.0286,0.0277,0.0312,0.0354,0.0308,0.0307,0.0306,0.0304,0,-0.0562,-0.0584,-0.0622,-0.0621,-0.0601,-0.06,-0.0575,-0.0489,-0.0455,-0.0357,-0.0336,-0.0161,-0.0104,0.004,0.0176,0.019,0.0334,0.0363,0.0412,0.041,0.0418,0.0414,0.0464,0.0464,0.0464,0.0464,0.0464,0,-0.0629,-0.0659,-0.066,-0.0683,-0.0714,-0.0666,-0.0672,-0.0628,-0.056,-0.0514,-0.0375,-0.0322,-0.0097,0.0021,0.0154,0.0321,0.0333,0.0425,0.0439,0.0412,0.0407,0.0406,0.0398,0.0466,0.0466,0.0465,0.0465,0,-0.0705,-0.0706,-0.0751,-0.0752,-0.0753,-0.0773,-0.0749,-0.0743,-0.0672,-0.0629,-0.0599,-0.0426,-0.0246,-0.0055,0.0145,0.0274,0.0421,0.0452,0.0389,0.0397,0.0467,0.0458,0.0559,0.056,0.056,0.056,0.0561,0,-0.0749,-0.0787,-0.0815,-0.0842,-0.0847,-0.0864,-0.0868,-0.0808,-0.079,-0.0681,-0.0658,-0.0499,-0.035,-0.0058,0.017,0.0399,0.0403,0.0479,0.0518,0.048,0.0483,0.0474,0.0464,0.0519,0.0519,0.0519,0.0519,0,-0.0837,-0.0845,-0.0879,-0.0934,-0.0957,-0.0978,-0.0972,-0.0976,-0.0887,-0.0829,-0.0715,-0.0599,-0.0315,-0.0043,0.0217,0.0352,0.0459,0.0486,0.0479,0.049,0.0446,0.0447,0.0439,0.0518,0.0518,0.0518,0.0518,0.0518,-0.0891,-0.0937,-0.0975,-0.1021,-0.1049,-0.1064,-0.1069,-0.1031,-0.0987,-0.0855,-0.076,-0.0549,-0.0317,0.0099,0.0284,0.0464,0.048,0.0546,0.0546,0.0545,0.052,0.0479,0.0552,0.0552,0.0552,0.0552,0.0552,0,-0.096,-0.1002,-0.1055,-0.1096,-0.1123,-0.1118,-0.1111,-0.1073,-0.1,-0.0849,-0.0704,-0.0432,-0.0149,0.0089,0.0378,0.0542,0.0546,0.0566,0.0546,0.0545,0.0544,0.0519,0.0551,0.0551,0.0551,0.0552,0,0,-0.0998,-0.1069,-0.1089,-0.1142,-0.1161,-0.1168,-0.1156,-0.1072,-0.0954,-0.0776,-0.0603,-0.04,-0.0122,0.008,0.028,0.043,0.0447,0.0442,0.0426,0.0378,0.0376,0.0516,0.0474,0,0,0,0,0]}],[{"header":{"parameterUnit":"m.s-1","parameterCategory":2,"la1":30.2991,"la2":30.254,"lo1":-89.0895,"lo2":-89.0444,"dy":0.0017,"dx":0.0017,"nx":28,"ny":28,"refTime":"2025-12-16T03:00:00:Z","depth":"4","parameterNumber":2,"parameterNumberName":"U-component_of_CURRENTS"},"data":[0,0,0,0,0,0,0,0,0,0,0,0,0,0,0,0,0,0,0,0,0,0,0,0,0,0,0,0,0,0,0,0,0,0,0,0,0,0,0,0,0,0,0,0,0,0,0,0,0,0,0,0,0,0,0,0,0,0,-0.0983,-0.0983,0,-0.1013,-0.1014,-0.1014,-0.1033,-0.1033,-0.1033,-0.1033,-0.1092,-0.1094,-0.1096,0,0,0,0,0,0,0,0,0,0,0,0,0,-0.1026,-0.1024,-0.0983,-0.0983,-0.0984,-0.1013,-0.1014,-0.1014,-0.1033,-0.1033,-0.1033,-0.1033,-0.1092,-0.1094,-0.1096,0,0,0,0,0,0,0,0,0,0,0,0,0,-0.1028,-0.1024,-0.0983,-0.0996,-0.0997,-0.1013,-0.1014,-0.1014,-0.1033,-0.1033,-0.1033,-0.1033,-0.1091,-0.1094,-0.1096,-0.1111,0,0,-0.1103,-0.1104,0,0,0,0,0,0,0,0,-0.1027,-0.1026,-0.0994,-0.0995,-0.0996,-0.1018,-0.105,-0.1048,-0.1033,-0.1021,-0.1033,-0.1033,-0.1069,-0.1074,-0.1081,-0.1114,-0.1117,-0.1104,-0.1105,-0.1106,-0.1107,0,0,0,0,0,0,0,-0.1027,-0.1025,-0.0996,-0.0994,-0.0995,-0.1028,-0.1028,-0.105,-0.1046,-0.1022,-0.1023,-0.1024,-0.1071,-0.1078,-0.1082,-0.1118,-0.1103,-0.1106,-0.1107,-0.1108,-0.1225,-0.1226,0,0,0,0,0,0,-0.1016,-0.1025,-0.0995,-0.0997,-0.1011,-0.1027,-0.1027,-0.1012,-0.1046,-0.105,-0.1024,-0.1025,-0.1074,-0.108,-0.1085,-0.1143,-0.1106,-0.1108,-0.111,-0.1223,-0.1225,-0.1227,0,0,0,0,0,0,-0.1016,-0.1012,-0.0994,-0.1012,-0.1012,-0.1025,-0.101,-0.1013,-0.1038,-0.1047,-0.1052,-0.1048,-0.1075,-0.1081,-0.1122,-0.1143,-0.1109,-0.1112,-0.1221,-0.1224,-0.1226,-0.1234,0,0,0,0,0,0,-0.1017,-0.1012,-0.1015,-0.101,-0.101,-0.1016,-0.101,-0.1013,-0.1037,-0.1039,-0.1069,-0.1073,-0.1075,-0.1118,-0.1124,-0.1146,-0.1113,-0.1219,-0.1222,-0.1225,-0.1232,-0.1237,-0.1241,0,0,0,0,0,-0.1018,-0.1022,-0.1015,-0.1012,-0.1007,-0.1017,-0.1021,-0.1032,-0.1038,-0.1055,-0.1075,-0.1073,-0.1142,-0.1121,-0.1128,-0.1151,-0.1218,-0.1221,-0.1225,-0.123,-0.1236,-0.1241,0,0,0,0,0,0,-0.105,-0.1024,-0.1016,-0.1013,-0.1018,-0.102,-0.1039,-0.1045,-0.1074,-0.1082,-0.1091,-0.1097,-0.1142,-0.1152,-0.1128,-0.1197,-0.1181,-0.1187,-0.1183,-0.1189,-0.1193,-0.1185,-0.1115,0,0,0,0,0,-0.1054,-0.1044,-0.1032,-0.1033,-0.1035,-0.1041,-0.1052,-0.1058,-0.1074,-0.1088,-0.1104,-0.1131,-0.1161,-0.1178,-0.1203,-0.1239,-0.1249,-0.1262,-0.1267,-0.127,-0.1271,-0.1301,-0.1308,-0.1239,-0.1239,-0.1239,0,0,-0.1066,-0.1052,-0.1048,-0.1039,-0.1044,-0.1054,-0.1049,-0.1069,-0.1087,-0.109,-0.113,-0.1149,-0.1176,-0.1214,-0.1235,-0.1225,-0.1299,-0.1275,-0.1277,-0.1276,-0.1306,-0.1312,-0.1318,-0.1242,-0.1241,-0.1241,0,0,-0.1083,-0.1072,-0.107,-0.1078,-0.1084,-0.1083,-0.1093,-0.1102,-0.1118,-0.1153,-0.1162,-0.1185,-0.1237,-0.1245,-0.1261,-0.1307,-0.1322,-0.1334,-0.1347,-0.1377,-0.1382,-0.1387,-0.1414,-0.1421,-0.1335,-0.1335,-0.1335,0,-0.1106,-0.1092,-0.1078,-0.1087,-0.1101,-0.1097,-0.1115,-0.1129,-0.1154,-0.1172,-0.1171,-0.1235,-0.1245,-0.1287,-0.1302,-0.1313,-0.1343,-0.1319,-0.138,-0.1385,-0.139,-0.1417,-0.1424,-0.1336,-0.1335,-0.1335,-0.1335,0,-0.1108,-0.1121,-0.1127,-0.1125,-0.114,-0.1159,-0.1166,-0.1194,-0.121,-0.1215,-0.1262,-0.1271,-0.1308,-0.1317,-0.1323,-0.137,-0.1386,-0.138,-0.1358,-0.1396,-0.1423,-0.1431,-0.1337,-0.1336,-0.1336,-0.1336,0,0,-0.1101,-0.1123,-0.113,-0.1151,-0.1166,-0.1179,-0.1216,-0.1241,-0.128,-0.1287,-0.1331,-0.1349,-0.1349,-0.1367,-0.1375,-0.1392,-0.1439,-0.1408,-0.1409,-0.1421,-0.1524,-0.1443,-0.1443,-0.1458,-0.1459,-0.146,-0.1531,0,-0.1113,-0.1142,-0.1147,-0.1193,-0.1212,-0.1237,-0.1276,-0.1303,-0.1328,-0.1371,-0.1364,-0.141,-0.1371,-0.1407,-0.1409,-0.1446,-0.1461,-0.1422,-0.1498,-0.1499,-0.1411,-0.1449,-0.1464,-0.1537,-0.1538,-0.154,-0.1541,0,-0.1104,-0.1131,-0.1175,-0.124,-0.1252,-0.1285,-0.1355,-0.139,-0.1437,-0.1464,-0.1481,-0.1488,-0.1509,-0.1478,-0.1516,-0.1505,-0.1515,-0.1524,-0.1527,-0.145,-0.1432,-0.1492,-0.1554,-0.1553,-0.1552,-0.1551,-0.1551,0,-0.1088,-0.1151,-0.1191,-0.1212,-0.1278,-0.1324,-0.1364,-0.1421,-0.1461,-0.1531,-0.157,-0.1581,-0.162,-0.1616,-0.1618,-0.159,-0.1669,-0.1628,-0.1557,-0.1552,-0.1598,-0.1592,-0.1654,-0.1654,-0.1654,-0.1653,-0.1653,0,-0.1076,-0.1113,-0.1201,-0.1222,-0.1297,-0.1343,-0.1417,-0.1473,-0.1544,-0.1589,-0.1616,-0.1654,-0.1666,-0.1697,-0.1667,-0.1641,-0.1707,-0.1564,-0.1564,-0.1602,-0.1596,-0.1604,-0.1597,-0.1656,-0.1655,-0.1655,-0.1654,0,-0.1032,-0.1085,-0.1149,-0.1251,-0.1287,-0.1343,-0.1439,-0.1489,-0.1576,-0.1645,-0.1674,-0.1742,-0.1778,-0.1777,-0.1804,-0.1717,-0.1696,-0.1676,-0.1741,-0.1743,-0.1543,-0.1536,-0.1577,-0.1575,-0.1573,-0.1572,-0.157,0,-0.0999,-0.1029,-0.1162,-0.1208,-0.1257,-0.1343,-0.1396,-0.1493,-0.1541,-0.1675,-0.1702,-0.1789,-0.1809,-0.177,-0.1781,-0.1733,-0.1698,-0.1685,-0.1567,-0.1539,-0.1535,-0.1532,-0.1528,-0.1567,-0.1567,-0.1566,-0.1566,0,-0.0939,-0.1005,-0.1058,-0.1169,-0.1243,-0.1314,-0.14,-0.1426,-0.1541,-0.1637,-0.1679,-0.1681,-0.1731,-0.171,-0.1715,-0.1665,-0.1682,-0.1663,-0.1664,-0.1553,-0.1527,-0.1524,-0.1523,-0.1559,-0.156,-0.156,-0.1561,0,-0.0886,-0.0922,-0.1012,-0.1103,-0.1204,-0.1262,-0.131,-0.1366,-0.1422,-0.1563,-0.1581,-0.1652,-0.1735,-0.168,-0.1673,-0.1634,-0.1567,-0.148,-0.1489,-0.1497,-0.1431,-0.1384,-0.1377,0,0,0,0,0,-0.0805,-0.0836,-0.0931,-0.1023,-0.1135,-0.1187,-0.1304,-0.1351,-0.1465,-0.1458,-0.1509,-0.1537,-0.1526,-0.1563,-0.1493,-0.1616,-0.1572,-0.1528,-0.1477,-0.1522,-0.1529,-0.1455,0,0,0,0,0,0,-0.0733,-0.0804,-0.0889,-0.0955,-0.0999,-0.1093,-0.116,-0.1236,-0.1234,-0.135,-0.1349,-0.1434,-0.1441,-0.1535,-0.1457,-0.1466,-0.1399,-0.1574,-0.157,-0.1517,-0.1524,-0.1531,-0.1457,0,0,0,0,0]},{"header":{"parameterUnit":"m.s-1","parameterCategory":2,"la1":30.2991,"la2":30.254,"lo1":-89.0895,"lo2":-89.0444,"dy":0.0017,"dx":0.0017,"nx":28,"ny":28,"refTime":"2025-12-16T03:00:00:Z","depth":"4","parameterNumber":3,"parameterNumberName":"V-component_of_CURRENTS"},"data":[0,0,0,0,0,0,0,0,0,0,0,0,0,0,0,0,0,0,0,0,0,0,0,0,0,0,0,0,0,0,0,0,0,0,0,0,0,0,0,0,0,0,0,0,0,0,0,0,0,0,0,0,0,0,0,0,0,0,-0.0306,-0.0306,0,-0.0307,-0.0307,-0.0307,-0.0298,-0.0298,-0.0298,-0.0298,-0.0258,-0.0258,-0.0257,0,0,0,0,0,0,0,0,0,0,0,0,0,-0.0268,-0.0269,-0.0306,-0.0306,-0.0306,-0.0307,-0.0307,-0.0307,-0.0298,-0.0298,-0.0298,-0.0297,-0.0259,-0.0258,-0.0257,0,0,0,0,0,0,0,0,0,0,0,0,0,-0.0279,-0.0269,-0.0306,-0.0301,-0.0301,-0.0307,-0.0307,-0.0307,-0.0298,-0.0298,-0.0298,-0.0297,-0.0259,-0.0258,-0.0257,-0.0258,0,0,-0.0253,-0.0253,0,0,0,0,0,0,0,0,-0.0278,-0.028,-0.0302,-0.0302,-0.0301,-0.0301,-0.0279,-0.0288,-0.0299,-0.03,-0.0298,-0.0297,-0.0269,-0.0267,-0.027,-0.0256,-0.0255,-0.0253,-0.0252,-0.0252,-0.0252,0,0,0,0,0,0,0,-0.0277,-0.028,-0.0307,-0.0302,-0.0302,-0.0289,-0.029,-0.0281,-0.0287,-0.03,-0.0299,-0.0298,-0.0269,-0.0271,-0.0268,-0.0254,-0.0253,-0.0252,-0.0251,-0.0251,-0.0247,-0.0248,0,0,0,0,0,0,-0.0278,-0.028,-0.0307,-0.0307,-0.0288,-0.029,-0.0292,-0.0302,-0.0288,-0.0285,-0.0299,-0.0298,-0.0273,-0.027,-0.0267,-0.0281,-0.0252,-0.0251,-0.025,-0.0247,-0.0248,-0.0248,0,0,0,0,0,0,-0.0278,-0.0281,-0.0307,-0.0292,-0.0294,-0.0291,-0.0303,-0.0303,-0.0305,-0.0287,-0.0284,-0.0301,-0.0272,-0.0269,-0.0265,-0.0279,-0.025,-0.0249,-0.0246,-0.0247,-0.0248,-0.0301,0,0,0,0,0,0,-0.0277,-0.0281,-0.029,-0.0292,-0.0295,-0.0315,-0.0304,-0.0303,-0.0305,-0.0304,-0.0288,-0.0284,-0.0272,-0.0267,-0.0264,-0.0277,-0.0248,-0.0245,-0.0246,-0.0248,-0.0298,-0.0304,-0.0308,0,0,0,0,0,-0.0276,-0.0292,-0.0291,-0.0294,-0.0307,-0.0315,-0.0316,-0.0312,-0.0305,-0.0311,-0.0302,-0.0285,-0.0272,-0.0267,-0.0263,-0.0276,-0.0245,-0.0246,-0.0247,-0.0296,-0.0303,-0.0308,0,0,0,0,0,0,-0.0279,-0.0292,-0.0291,-0.031,-0.0313,-0.0314,-0.0319,-0.0315,-0.0313,-0.0312,-0.0293,-0.0289,-0.0292,-0.0275,-0.027,-0.0278,-0.0255,-0.0256,-0.0294,-0.0299,-0.0304,-0.0305,-0.0247,0,0,0,0,0,-0.0284,-0.0301,-0.0305,-0.032,-0.0323,-0.0321,-0.0323,-0.0323,-0.0321,-0.032,-0.031,-0.03,-0.0296,-0.029,-0.0284,-0.0286,-0.0244,-0.0292,-0.0296,-0.0301,-0.0299,-0.0255,-0.0255,-0.0253,-0.0253,-0.0253,0,0,-0.029,-0.0298,-0.0308,-0.0322,-0.0324,-0.034,-0.0322,-0.0331,-0.0346,-0.0315,-0.0331,-0.0317,-0.03,-0.0308,-0.0307,-0.0295,-0.0276,-0.0302,-0.0306,-0.0302,-0.0256,-0.0256,-0.0256,-0.0254,-0.0253,-0.0253,0,0,-0.0312,-0.0317,-0.034,-0.0345,-0.0352,-0.0354,-0.0357,-0.0362,-0.0364,-0.0375,-0.0359,-0.0359,-0.0347,-0.0345,-0.034,-0.0366,-0.0305,-0.0357,-0.0379,-0.0337,-0.0337,-0.0336,-0.0267,-0.026,-0.0357,-0.0357,-0.0357,0,-0.0317,-0.0348,-0.0346,-0.0366,-0.0373,-0.0363,-0.0385,-0.039,-0.0394,-0.0393,-0.0387,-0.0375,-0.037,-0.0372,-0.0386,-0.0379,-0.0324,-0.0361,-0.0342,-0.0341,-0.0339,-0.0269,-0.026,-0.036,-0.0359,-0.0359,-0.0359,0,-0.0357,-0.0379,-0.039,-0.0417,-0.0423,-0.0439,-0.0443,-0.0449,-0.0447,-0.0445,-0.0445,-0.0437,-0.0423,-0.0428,-0.0417,-0.0405,-0.0359,-0.0355,-0.0327,-0.0342,-0.0267,-0.0257,-0.0364,-0.0363,-0.0362,-0.0361,0,0,-0.0376,-0.0413,-0.0417,-0.0436,-0.045,-0.0462,-0.0481,-0.0491,-0.0493,-0.0495,-0.0491,-0.0502,-0.0479,-0.0471,-0.0454,-0.0426,-0.0376,-0.0383,-0.0379,-0.0313,-0.0243,-0.0221,-0.0207,-0.0355,-0.0354,-0.0353,-0.019,0,-0.0407,-0.0458,-0.0465,-0.0507,-0.053,-0.0523,-0.054,-0.0543,-0.0534,-0.0526,-0.0512,-0.0503,-0.0499,-0.0485,-0.0461,-0.0398,-0.0352,-0.0418,-0.024,-0.0235,-0.0212,-0.0197,-0.035,-0.0183,-0.018,-0.0178,-0.0177,0,-0.0444,-0.0473,-0.0523,-0.0552,-0.056,-0.0581,-0.0587,-0.06,-0.0581,-0.0567,-0.0545,-0.0516,-0.0487,-0.0477,-0.0371,-0.0402,-0.0326,-0.0274,-0.0267,-0.0221,-0.0195,-0.0167,-0.0158,-0.0159,-0.0161,-0.0162,-0.0163,0,-0.0463,-0.051,-0.0553,-0.0564,-0.0597,-0.0611,-0.0622,-0.0613,-0.0616,-0.0582,-0.0562,-0.0516,-0.048,-0.0399,-0.0299,-0.032,-0.0155,-0.0173,-0.0074,-0.007,-0.0115,-0.0118,-0.0082,-0.0083,-0.0083,-0.0083,-0.0084,0,-0.0495,-0.0528,-0.0567,-0.0592,-0.0634,-0.0637,-0.0662,-0.0658,-0.0638,-0.063,-0.0582,-0.0546,-0.0454,-0.0354,-0.0273,-0.0131,-0.0128,-0.0065,-0.003,-0.0139,-0.0147,-0.0106,-0.0111,-0.0077,-0.0079,-0.008,-0.0081,0,-0.0518,-0.0544,-0.0596,-0.0635,-0.0651,-0.0679,-0.0702,-0.0708,-0.0679,-0.0658,-0.0642,-0.0548,-0.0415,-0.0303,-0.0146,-0.0089,0.0034,0.0089,-0.0002,0.0023,0.0088,0.0079,0.0208,0.021,0.0212,0.0213,0.0215,0,-0.0536,-0.0568,-0.0632,-0.0665,-0.0689,-0.0727,-0.0749,-0.0737,-0.073,-0.0656,-0.0638,-0.0503,-0.0429,-0.0175,-0.0072,0.0116,0.0126,0.0203,0.0104,0.0096,0.0117,0.0105,0.0093,0.0217,0.0218,0.0218,0.0219,0,-0.0567,-0.0594,-0.0636,-0.0707,-0.0746,-0.0783,-0.0802,-0.0795,-0.0759,-0.0731,-0.0607,-0.0479,-0.0314,-0.0156,0.0011,0.0127,0.0148,0.0221,0.0217,0.0125,0.0109,0.0125,0.0112,0.0225,0.0224,0.0223,0.0223,0,-0.0581,-0.0619,-0.0678,-0.0738,-0.0794,-0.0821,-0.0827,-0.0792,-0.0771,-0.0674,-0.0627,-0.0457,-0.0351,-0.0145,-0.0005,0.0126,0.0129,0.0144,0.0144,0.0138,0.0049,0.0014,0.0144,0,0,0,0,0,-0.0583,-0.0633,-0.0702,-0.0762,-0.0821,-0.0847,-0.0856,-0.0844,-0.0797,-0.0709,-0.0663,-0.0507,-0.0276,-0.0174,-0.0039,-0.0006,0.013,0.0152,0.0141,0.0259,0.0252,0.0157,0,0,0,0,0,0,-0.0581,-0.0652,-0.0701,-0.0776,-0.0817,-0.0865,-0.087,-0.0836,-0.0772,-0.0706,-0.0578,-0.0489,-0.0266,-0.0353,-0.0041,-0.0,0.0007,0.0267,0.0269,0.0263,0.0256,0.0251,0.015,0,0,0,0,0]}]]